Location: Huesca
(42.1318°N, 0.4078°W)
Time: 11:19:02
(UTC+02:00)

Altair - All Passes

Search period start: 15 July 2024 00:00
Search period end: 25 July 2024 00:00
Orbit: 1502 x 1681 km, 47.2° (Epoch: 15 July)

Date Brightness Start Highest point End Pass type
(mag) Time Alt. Az. Time Alt. Az. Time Alt. Az.
15 Jul - 02:00:00 10° WNW 02:09:12 77° NNE 02:18:34 10° ESE visible
15 Jul - 04:04:52 10° WNW 04:13:40 52° SW 04:22:41 10° SSE visible
15 Jul - 06:12:40 10° W 06:16:44 14° WSW 06:20:52 10° SSW daylight
15 Jul - 19:22:28 10° S 19:29:51 27° SE 19:37:06 10° ENE daylight
15 Jul - 21:24:12 10° SW 21:33:30 76° SSE 21:42:40 10° ENE daylight
15 Jul - 23:29:19 10° W 23:38:30 66° N 23:47:40 10° ENE visible
16 Jul - 01:34:46 10° WNW 01:43:59 75° NNE 01:53:18 10° ESE visible
16 Jul - 03:39:38 10° WNW 03:48:31 55° SW 03:57:37 10° SE visible
16 Jul - 05:46:48 10° W 05:51:41 15° SW 05:56:39 10° SSW visible
16 Jul - 18:57:43 10° S 19:04:47 24° SE 19:11:42 10° E daylight
16 Jul - 20:59:03 10° SW 21:08:20 72° SSE 21:17:27 10° ENE daylight
16 Jul - 23:04:02 10° W 23:13:15 67° N 23:22:25 10° ENE visible
17 Jul - 01:09:32 10° WNW 01:18:44 72° NNE 01:28:01 10° E visible
17 Jul - 03:14:25 10° WNW 03:23:22 59° SW 03:32:31 10° SE visible
17 Jul - 05:21:06 10° W 05:26:37 17° SW 05:32:15 10° SSW visible
17 Jul - 18:33:01 10° S 18:39:42 22° SE 18:46:16 10° E daylight
17 Jul - 20:33:54 10° SW 20:43:09 68° SE 20:52:15 10° ENE daylight
17 Jul - 22:38:46 10° W 22:48:00 69° NNW 22:57:10 10° ENE visible
18 Jul - 00:44:18 10° WNW 00:53:30 70° NNE 01:02:44 10° E visible
18 Jul - 02:49:12 10° WNW 02:58:13 63° SW 03:07:25 10° SE visible
18 Jul - 04:55:31 10° W 05:01:34 20° SW 05:07:43 10° SSW visible
18 Jul - 18:08:23 10° S 18:14:38 20° SE 18:20:45 10° E daylight
18 Jul - 20:08:47 10° SW 20:18:00 64° SE 20:27:02 10° ENE daylight
18 Jul - 22:13:28 10° W 22:22:45 70° NNW 22:31:56 10° ENE visible
19 Jul - 00:19:03 10° WNW 00:28:14 69° NNE 00:37:28 10° E visible
19 Jul - 02:23:59 10° WNW 02:33:04 68° SW 02:42:17 10° SE visible
19 Jul - 04:30:01 10° W 04:36:30 22° SW 04:43:06 10° S visible
19 Jul - 17:43:51 10° SSE 17:49:34 18° SE 17:55:11 10° E daylight
19 Jul - 19:43:40 10° SW 19:52:51 60° SE 20:01:49 10° ENE daylight
19 Jul - 21:48:11 10° W 21:57:30 72° NNW 22:06:42 10° ENE visible
19 Jul - 23:53:49 10° WNW 00:02:59 67° N 00:12:11 10° E visible
20 Jul - 01:58:47 10° WNW 02:07:54 72° SSW 02:17:09 10° SE visible
20 Jul - 04:04:34 10° W 04:11:25 24° SW 04:18:25 10° S visible
20 Jul - 17:19:26 10° SSE 17:24:31 16° SE 17:29:30 10° E daylight
20 Jul - 19:18:34 10° SW 19:27:42 56° SE 19:36:36 10° ENE daylight
20 Jul - 21:22:55 10° WSW 21:32:15 74° NNW 21:41:28 10° ENE daylight
20 Jul - 23:28:33 10° WNW 23:37:44 66° N 23:46:54 10° E visible
21 Jul - 01:33:34 10° WNW 01:42:44 76° SSW 01:51:59 10° SE visible
21 Jul - 03:39:09 10° WNW 03:46:21 27° SW 03:53:41 10° S visible
21 Jul - 16:55:11 10° SSE 16:59:27 14° ESE 17:03:40 10° E daylight
21 Jul - 18:53:30 10° SSW 19:02:33 52° SE 19:11:22 10° ENE daylight
21 Jul - 20:57:38 10° WSW 21:07:01 77° NNW 21:16:14 10° ENE daylight
21 Jul - 23:03:17 10° WNW 23:12:29 65° N 23:21:38 10° E visible
22 Jul - 01:08:21 10° WNW 01:17:33 80° SSW 01:26:49 10° SE visible
22 Jul - 03:13:47 10° WNW 03:21:16 29° SW 03:28:53 10° S visible
22 Jul - 16:31:13 10° SE 16:34:24 12° ESE 16:37:34 10° ESE daylight
22 Jul - 18:28:27 10° SSW 18:37:25 48° SE 18:46:08 10° ENE daylight
22 Jul - 20:32:22 10° WSW 20:41:48 79° NNW 20:51:02 10° ENE daylight
22 Jul - 22:38:01 10° WNW 22:47:13 65° N 22:56:21 10° E visible
23 Jul - 00:43:09 10° WNW 00:52:22 84° SSW 01:01:38 10° ESE visible
23 Jul - 02:48:26 10° WNW 02:56:11 32° SW 03:04:03 10° S visible
23 Jul - 16:08:11 10° SE 16:09:22 10° ESE 16:10:32 10° ESE daylight
23 Jul - 18:03:25 10° SSW 18:12:17 45° SE 18:20:54 10° ENE daylight
23 Jul - 20:07:06 10° WSW 20:16:34 82° NNW 20:25:49 10° ENE daylight
23 Jul - 22:12:44 10° W 22:21:57 64° N 22:31:05 10° E visible
24 Jul - 00:17:56 10° WNW 00:27:10 88° SSW 00:36:25 10° ESE visible
24 Jul - 02:23:07 10° WNW 02:31:05 35° SW 02:39:10 10° SSE visible
24 Jul - 17:38:25 10° SSW 17:47:09 42° SE 17:55:39 10° ENE daylight
24 Jul - 19:41:50 10° WSW 19:51:20 86° NNW 20:00:37 10° ENE daylight
24 Jul - 21:47:27 10° W 21:56:41 64° N 22:05:49 10° E visible
